Buffalo, SD

3:30 AM MDT on September 24, 2017 (GMT -0600)
Buffalo

Weather History for K2WX - July, 2013

Change the Weather History Date:

Wednesday, July 17, 2013

  Actual Average Record
Temperature  
Mean Temperature 77 °F 72 °F  
Max Temperature 92 °F 85 °F 98 °F (2007)
Min Temperature 61 °F 58 °F 53 °F (2014)
Degree Days  
Heating Degree Days 0 1  
Month to date heating degree days 2 17  
Since 1 June heating degree days 91 131  
Since 1 July heating degree days 2 17  
Cooling Degree Days 12 7  
Month to date cooling degree days 147 100  
Year to date cooling degree days 203 168  
Since 1 June cooling degree days 193 162  
Growing Degree Days 26 (Base 50)    
Moisture  
Dew Point 62 °F    
Average Humidity 69    
Maximum Humidity 100    
Minimum Humidity 37    
Precipitation  
Precipitation 0.00 in 0.06 in 1.00 in (2012)
Month to date precipitation 0.78 1.20  
Year to date precipitation 6.64 9.87  
Sea Level Pressure  
Sea Level Pressure 30.00 in    
Wind  
Wind Speed 9 mph (NE)    
Max Wind Speed 21 mph    
Max Gust Speed 25 mph    
T = Trace of Precipitation, MM = Missing Value Source: NWS Daily Summary

Daily Weather History Graph

Daily Weather History Graph

Search for Another Location

Airport or City:

Trip Planner

Search our weather history database for the weather conditions in past years. The results will help you decide how hot, cold, wet, or windy it might be!

Date:

Astronomy

Jul. 17, 2013 Rise Set
Actual Time 5:21 AM MDT 8:38 PM MDT
Civil Twilight 4:45 AM MDT 9:14 PM MDT
Nautical Twilight 3:58 AM MDT 10:01 PM MDT
Astronomical Twilight 2:59 AM MDT 10:59 PM MDT
Moon 3:26 PM MDT (7/17) 12:36 AM MDT (7/17)
Length of Visible Light 16h 28m
Length of Day
15h 16m
Waxing Gibbous, 68% of the Moon is Illuminated
Jul 17
Waxing Gibbous
Jul 22
Full
Jul 29
Last Quarter
Aug 6
New
Aug 14
First Quarter

Hourly Weather History & Observations

Time (MDT) Temp. Heat Index Dew Point Humidity Pressure Visibility Wind Dir Wind Speed Gust Speed Precip Events Conditions
12:56 AM 62.1 °F - 60.1 °F 93% 30.06 in - NE 10.4 mph - N/A   Unknown
1:56 AM 61.0 °F - 60.1 °F 97% 30.05 in - NE 15.0 mph - N/A   Unknown
2:56 AM 61.0 °F - 60.1 °F 97% 30.05 in - NE 11.5 mph - N/A   Unknown
3:56 AM 61.0 °F - 61.0 °F 100% 30.06 in - NE 11.5 mph - N/A   Unknown
4:56 AM 61.0 °F - 61.0 °F 100% 30.06 in - NE 10.4 mph - N/A   Unknown
5:56 AM 61.0 °F - 60.1 °F 97% 30.07 in - NE 6.9 mph - N/A   Unknown
6:56 AM 61.0 °F - 60.1 °F 97% 30.09 in - NE 5.8 mph - N/A   Unknown
7:56 AM 61.0 °F - 61.0 °F 100% 30.10 in - NE 4.6 mph - N/A   Unknown
8:56 AM 63.0 °F - 61.0 °F 93% 30.10 in - Variable 3.5 mph - N/A   Unknown
9:56 AM 68.0 °F - 61.0 °F 78% 30.09 in - North 5.8 mph - N/A   Unknown
10:56 AM 75.0 °F - 62.1 °F 64% 30.07 in - NNE 8.1 mph - N/A   Unknown
11:56 AM 80.1 °F 81.2 °F 62.1 °F 54% 30.05 in - NNE 5.8 mph - N/A   Unknown
12:56 PM 84.0 °F 84.5 °F 62.1 °F 47% 30.03 in - ENE 6.9 mph - N/A   Unknown
1:56 PM 86.0 °F 86.3 °F 62.1 °F 44% 30.00 in - ENE 10.4 mph - N/A   Unknown
2:56 PM 88.0 °F 88.7 °F 63.0 °F 43% 29.97 in - NE 8.1 mph - N/A   Unknown
3:56 PM 90.0 °F 90.3 °F 62.1 °F 39% 29.96 in - North 9.2 mph 18.4 mph N/A   Unknown
4:56 PM 90.0 °F 89.1 °F 59.0 °F 35% 29.94 in - NE 8.1 mph - N/A   Unknown
5:56 PM 90.0 °F 89.7 °F 60.1 °F 37% 29.92 in - NNE 13.8 mph - N/A   Unknown
6:56 PM 88.0 °F 88.4 °F 62.1 °F 42% 29.91 in - NNE 17.3 mph 25.3 mph N/A   Unknown
7:56 PM 82.9 °F 85.0 °F 66.0 °F 56% 29.91 in - NE 15.0 mph - N/A   Unknown
8:56 PM 78.1 °F - 66.0 °F 66% 29.90 in - NE 12.7 mph - N/A   Unknown
9:56 PM 75.0 °F - 66.0 °F 73% 29.91 in - NE 10.4 mph - N/A   Unknown
10:56 PM 73.9 °F - 66.0 °F 76% 29.89 in - ENE 6.9 mph - N/A   Unknown
11:56 PM 73.0 °F - 63.0 °F 71% 29.87 in - ESE 5.8 mph - N/A   Unknown